User: anonymous   Login
Location: Unspecified
(0.0000°N, 0.0000°E)
Time: 03:08:45
(UTC+00:00)
Language:

KAITUO 1B - Orbit

View from above orbital plane
View from above orbital plane
View from above satellite
View from above satellite

Ground track
Ground track

The orbit data is extracted from the following two-line orbital elements,

1 40912U 15049P   19078.83253747  .00001235  00000-0  61448-4 0  9997
2 40912  97.4515  87.3724 0016604 125.3219 357.1854 15.19376368193511
Epoch (UTC): 19 March 2019 19:58:51
Eccentricity: 0.0016604
inclination: 97.4515°
perigee height: 496 km
apogee height: 519 km
right ascension of ascending node: 87.3724°
argument of perigee: 125.3219°
revolutions per day: 15.19376368
mean anomaly at epoch: 357.1854°
orbit number at epoch: 19351

The dashed part of the orbit path shows where the satellite is in the earth's shadow,  

DLR